Regional Weather Roundup
Issued by NWS Sterling, VA

Home | Current Version | Previous Version | Text Only | Print | Product List | Glossary Off
Versions: 1 2 3 4 5 6 7 8 9 10 11 12 13 14 15 16 17 18 19 20 21 22 23 24 25 26 27 28 29 30 31 32 33 34 35 36 37

000
ASUS41 KLWX 221210
RWRLWX

REGIONAL WEATHER ROUNDUP
NATIONAL WEATHER SERVICE BALTIMORE MD/WASHINGTON DC
800 AM EDT WED OCT 22 2014

Note: "FAIR" indicates few or no clouds below 12,000 feet
with no significant weather and/or obstructions to visibility.
 TC=TEMPERATURE CELSIUS

 * =Non NWS site. Station does not report precipitation (e.g. rain,
    snow, etc.), thunder, or fog.

DCZ001-MDZ009-015-VAZ040>042-051-053>054-221300-
WASHINGTON METRO

CITY           SKY/WX    TMP DP  RH WIND       PRES   REMARKS
WASHINGTON NAT RAIN      56  50  80 NW16      29.90S
DULLES         RAIN      52  50  93 N9        29.93R FOG
ANDREWS AFB    HVY RAIN  54  52  94 N16       29.88R FOG
FT BELVOIR     HVY RAIN  53  51  92 NW10      29.91R
QUANTICO       LGT RAIN  54  50  86 N14G25    29.91R
COLLEGE PARK*  CLOUDY    54  52  94 NW8       29.89S
LEESBURG*      LGT RAIN  54  52  94 N12G17    29.94R
MANASSAS*      CLOUDY    54  54 100 N10       29.92R
GAITHERSBURG*  CLOUDY    52  48  87 NW5       29.95R

$$

MDZ006>007-011-014-221300-
BALTIMORE METRO

CITY           SKY/WX    TMP DP  RH WIND       PRES   REMARKS
BWI AIRPORT    LGT RAIN  54  52  94 N7        29.88S FOG
MD SCIENCE CTR   N/A     55  51  86 MISG      29.89R
MARTIN STATE   RAIN      55  54  94 NW3       29.89S
ANNAPOLIS      LGT RAIN  55  52  89 N12       29.88R FOG
FORT MEADE*    CLOUDY    52  50  93 NW6       29.91R

$$

MDZ012-015-019>023-221300-
MARYLAND EASTERN SHORE

CITY           SKY/WX    TMP DP  RH WIND       PRES   REMARKS
OCEAN CITY     CLOUDY    56  55  97 N9        29.80S FOG
SALISBURY      CLOUDY    57  54  88 N9        29.81R FOG
BAY BRIDGE AP* RAIN      54  54 100 N15G22    29.86R
CAMBRIDGE*     CLOUDY    55  52  88 N10       29.83R VSB<1/4
EASTON*        CLOUDY    55  55 100 N9        29.88R

$$

MDZ017>025-221300-
SOUTHERN MARYLAND

CITY           SKY/WX    TMP DP  RH WIND       PRES   REMARKS
PATUXENT RIVER LGT RAIN  55  52  89 N9        29.83S
ST INIGOES     LGT RAIN  55  50  83 N8        29.82S
LEONARDTOWN*   CLOUDY    54  50  87 NW8       29.86R

$$

MDZ003>005-221300-
NORTH CENTRAL MARYLAND

CITY           SKY/WX    TMP DP  RH WIND       PRES   REMARKS
FREDERICK*     CLOUDY    57  50  77 N9G16     29.96R
HAGERSTOWN APT CLOUDY    52  46  80 N8        29.96R
WESTMINSTER*   CLOUDY    52  48  87 N12       29.92R

$$

MDZ501>502-221300-
WESTERN MARYLAND

CITY           SKY/WX    TMP DP  RH WIND       PRES   REMARKS
OAKLAND*       FOG       41 N/A N/A NW8G17    30.03R VSB<1/4
CUMBERLAND*    CLOUDY    52  46  82 N3        30.05R

$$

VAZ025>031-221300-
SHENANDOAH VALLEY

CITY           SKY/WX    TMP DP  RH WIND       PRES   REMARKS
WINCHESTER*    CLOUDY    54  45  71 NW9       29.97R
FRONT ROYAL*   CLOUDY    52  46  82 NW8       29.96R
LURAY*         CLOUDY    54  48  82 N16G23    29.97R
NEW MARKET*    CLOUDY    50  45  81 NW7       29.98R
STAUNTON*      DRIZZLE   49  44  80 N6        30.00R
WAYNESBORO*    CLOUDY    48  41  76 NW5       29.98R

$$

WVZ021-048>050-054>055-221300-
EASTERN WEST VIRGINIA PANHANDLE

CITY           SKY/WX    TMP DP  RH WIND       PRES   REMARKS
MARTINSBURG    CLOUDY    54  45  71 N12       29.97R
PETERSBURG*    CLOUDY   N/A N/A N/A CALM      30.03R

$$

VAZ036>039-050-221300-
CENTRAL FOOTHILLS

CITY           SKY/WX    TMP DP  RH WIND       PRES   REMARKS
CHARLOTTESVILL CLOUDY    53  44  71 N13G20    29.95R
CULPEPER*      DRIZZLE   54  50  87 NW7       29.94R
ORANGE*        LGT RAIN  52  48  87 NW6       29.95R
GORDONSVILLE*  CLOUDY    51  47  86 MISG      29.93R
WARRENTON*     DRIZZLE   53  53 100 NW10      29.92R

$$

VAZ055>057-221300-
NORTH AND CENTRAL PIEDMONT

CITY           SKY/WX    TMP DP  RH WIND       PRES   REMARKS
FREDERICKSBRG* LGT RAIN  54  54 100 NW9       29.90R
STAFFORD*      LGT RAIN  52  52 100 NW10      29.95R

$$

NCZ024-NYZ072-PAZ021-071-VAZ022-071-221300-
OTHER REGIONAL OBSERVATIONS

CITY           SKY/WX    TMP DP  RH WIND       PRES   REMARKS
NEW YORK CITY  LGT RAIN  54  51  90 NE9G20    29.95R
PHILADELPHIA   LGT RAIN  57  52  83 NE17G28   29.87R
PITTSBURGH     CLOUDY    47  43  86 N9        30.12R
ROANOKE        PTCLDY    49  37  63 N8G16     30.04R
RICHMOND       LGT RAIN  53  50  89 NW14      29.89R FOG
RALEIGH        PTCLDY    50  38  63 VRB3      29.97R

$$

ANZ530>537-221300-
MARINE OBSERVATIONS

STATION/POSITION TIME  TEMP    WIND        PRES
                       AIR SEA DIR/SP/G
                 (UTC) (F)     (DEG/KT/KT) (MB)
THOMAS PT LIGHT  1200   55 64  350/ 20/ 22 1011.9R
BALT KEY BRIDGE  1200   54     330/ 11/ 12 1011.4S
COVE POINT       1200   58      20/ 23/ 27 1010.0R
LEWISETTA        1200   56 63  350/ 12/ 16 1009.9R
SOLOMONS ISLAND  1200      66                N/A
PINEY POINT      1200           10/ 15/ 17   N/A

$$




USA.gov is the U.S. government's official web portal to all federal, state and local government web resources and services.